Weather History for Rice Lake, WI

Change the Weather History Date:

Monday, January 20, 2014

  Actual Average Record
Temperature  
Mean Temperature 8 °F -  
Max Temperature 22 °F 19 °F - (-1)
Min Temperature -6 °F 3 °F - (-1)
Degree Days  
Heating Degree Days 57    
Moisture  
Dew Point 1 °F    
Average Humidity 68    
Maximum Humidity 85    
Minimum Humidity 48    
Precipitation  
Precipitation 0.00 in - - ()
Sea Level Pressure  
Sea Level Pressure 30.02 in    
Wind  
Wind Speed 9 mph (North)    
Max Wind Speed 16 mph    
Max Gust Speed 21 mph    
Visibility 9 miles    
Events Snow    
Averages and records for this station are not official NWS values.
T = Trace of Precipitation, MM = Missing Value Source: NWS Daily Summary

Daily Weather History Graph

Daily Weather History Graph

Search for Another Location

Airport:

Trip Planner

Search our weather history database for the weather conditions in past years. The results will help you decide how hot, cold, wet, or windy it might be!

Date:

Astronomy

Jan. 20, 2014 Rise Set
Actual Time 7:39 AM CST 4:57 PM CST
Civil Twilight 7:07 AM CST 5:29 PM CST
Nautical Twilight 6:30 AM CST 6:06 PM CST
Astronomical Twilight 5:55 AM CST 6:41 PM CST
Moon 9:48 PM CST (1/20) 9:25 AM CST (1/20)
Length of Visible Light 10h 22m
Length of Day
9h 17m
Waning Gibbous, 82% of the Moon is Illuminated
Jan 20
Waning Gibbous
Jan 23
Last Quarter
Jan 30
New
Feb 6
First Quarter
Feb 14
Full

Hourly Weather History & Observations

Time (CST) Temp. Windchill Dew Point Humidity Pressure Visibility Wind Dir Wind Speed Gust Speed Precip Events Conditions
12:15 AM 22.8 °F 16.7 °F 17.4 °F 80% 29.68 in 10.0 mi NNE 4.6 mph - N/A   Overcast
12:35 AM 22.6 °F 15.3 °F 17.4 °F 80% 29.69 in 10.0 mi North 5.8 mph - N/A   Overcast
12:55 AM 22.5 °F 15.1 °F 17.6 °F 82% 29.69 in 10.0 mi North 5.8 mph - N/A   Overcast
1:15 AM 22.1 °F 14.7 °F 17.4 °F 82% 29.69 in 7.0 mi NNE 5.8 mph - N/A Snow Light Snow
1:35 AM 21.6 °F 14.0 °F 17.1 °F 83% 29.69 in 7.0 mi NNE 5.8 mph - N/A Snow Light Snow
1:55 AM 21.0 °F 11.4 °F 16.5 °F 83% 29.69 in 7.0 mi NE 8.1 mph - N/A Snow Light Snow
2:15 AM 20.8 °F 14.4 °F 16.3 °F 83% 29.71 in 7.0 mi NE 4.6 mph - N/A Snow Light Snow
2:35 AM 20.7 °F 13.0 °F 15.4 °F 80% 29.71 in 10.0 mi NE 5.8 mph - N/A Snow Light Snow
2:55 AM 20.3 °F 13.8 °F 15.6 °F 82% 29.73 in 2.0 mi NE 4.6 mph - N/A Snow Light Snow
3:15 AM 19.4 °F 11.5 °F 15.6 °F 85% 29.73 in 2.5 mi NNE 5.8 mph - N/A Snow Light Snow
3:35 AM 19.4 °F 9.5 °F 15.3 °F 84% 29.74 in 7.0 mi NNE 8.1 mph - N/A Snow Light Snow
3:55 AM 19.2 °F 10.2 °F 15.3 °F 85% 29.75 in 10.0 mi North 6.9 mph - N/A   Overcast
4:15 AM 19.2 °F 11.3 °F 15.4 °F 85% 29.74 in 10.0 mi NNE 5.8 mph - N/A Snow Light Snow
4:35 AM 19.0 °F 11.1 °F 15.3 °F 85% 29.76 in 4.0 mi North 5.8 mph - N/A Snow Light Snow
4:55 AM 18.5 °F 9.3 °F 14.0 °F 83% 29.77 in 7.0 mi NNE 6.9 mph - N/A Snow Light Snow
5:15 AM 18.3 °F 9.1 °F 14.0 °F 83% 29.79 in 10.0 mi North 6.9 mph - N/A Snow Light Snow
5:35 AM 18.1 °F 8.9 °F 14.0 °F 84% 29.79 in 10.0 mi North 6.9 mph - N/A Snow Light Snow
5:55 AM 18.0 °F 7.7 °F 13.5 °F 83% 29.80 in 1.8 mi North 8.1 mph - N/A Snow Light Snow
6:15 AM 17.6 °F 8.2 °F 13.6 °F 84% 29.81 in 2.5 mi North 6.9 mph - N/A Snow Light Snow
6:35 AM 17.1 °F 3.6 °F 12.6 °F 82% 29.81 in 5.0 mi North 12.7 mph - N/A Snow Light Snow
6:55 AM 15.8 °F 1.4 °F 11.1 °F 82% 29.83 in 7.0 mi North 13.8 mph - N/A Snow Light Snow
7:15 AM 14.0 °F -0.8 °F 8.4 °F 78% 29.83 in 10.0 mi North 13.8 mph - N/A Snow Light Snow
7:35 AM 13.8 °F 1.0 °F 7.3 °F 75% 29.85 in 10.0 mi North 10.4 mph - N/A   Overcast
7:55 AM 13.6 °F 4.6 °F 6.3 °F 72% 29.87 in 10.0 mi NNW 5.8 mph - N/A   Overcast
8:15 AM 13.1 °F -1.4 °F 5.5 °F 72% 29.89 in 10.0 mi North 12.7 mph 18.4 mph N/A   Overcast
8:35 AM 12.9 °F -1.6 °F 5.2 °F 71% 29.90 in 10.0 mi North 12.7 mph - N/A   Overcast
8:55 AM 12.2 °F -3.1 °F 5.4 °F 74% 29.91 in 10.0 mi North 13.8 mph - N/A   Overcast
9:15 AM 12.0 °F -4.5 °F 4.3 °F 71% 29.92 in 10.0 mi NNE 16.1 mph 20.7 mph N/A   Overcast
9:35 AM 11.3 °F -5.5 °F 3.6 °F 71% 29.94 in 10.0 mi NNE 16.1 mph - N/A   Overcast
9:55 AM 11.3 °F -3.6 °F 3.9 °F 72% 29.96 in 10.0 mi North 12.7 mph - N/A   Overcast
10:15 AM 11.1 °F -5.7 °F 3.4 °F 71% 29.98 in 10.0 mi NNE 16.1 mph - N/A   Overcast
10:35 AM 10.8 °F -5.0 °F 2.7 °F 70% 29.99 in 10.0 mi NNE 13.8 mph - N/A   Overcast
10:55 AM 11.3 °F -4.3 °F 2.7 °F 68% 30.00 in 10.0 mi NNE 13.8 mph 18.4 mph N/A   Overcast
11:15 AM 10.4 °F -4.8 °F 3.2 °F 73% 30.01 in 7.0 mi North 12.7 mph - N/A   Overcast
11:35 AM 10.4 °F -5.4 °F 2.7 °F 71% 30.01 in 10.0 mi North 13.8 mph - N/A   Overcast
11:55 AM 10.2 °F -5.7 °F 1.9 °F 69% 30.02 in 10.0 mi North 13.8 mph - N/A   Overcast
12:15 PM 10.2 °F -5.7 °F 1.0 °F 66% 30.02 in 10.0 mi North 13.8 mph - N/A   Mostly Cloudy
12:35 PM 10.0 °F -5.2 °F 0.7 °F 66% 30.02 in 10.0 mi North 12.7 mph - N/A   Mostly Cloudy
12:55 PM 10.0 °F -6.5 °F -0.0 °F 64% 30.03 in 10.0 mi North 15.0 mph - N/A   Scattered Clouds
1:15 PM 10.4 °F -5.4 °F 0.5 °F 64% 30.04 in 10.0 mi North 13.8 mph - N/A   Scattered Clouds
1:35 PM 9.7 °F -5.7 °F -1.1 °F 62% 30.05 in 10.0 mi North 12.7 mph - N/A   Mostly Cloudy
1:55 PM 9.3 °F -4.6 °F -2.2 °F 60% 30.06 in 10.0 mi North 10.4 mph - N/A   Scattered Clouds
2:15 PM 9.3 °F -6.8 °F -1.3 °F 62% 30.07 in 10.0 mi North 13.8 mph - N/A   Scattered Clouds
2:35 PM 8.6 °F -6.3 °F -2.7 °F 60% 30.09 in 10.0 mi North 11.5 mph - N/A   Mostly Cloudy
2:55 PM 8.6 °F -7.7 °F -1.7 °F 63% 30.10 in 10.0 mi North 13.8 mph 17.3 mph N/A   Overcast
3:15 PM 8.2 °F -6.8 °F -1.3 °F 65% 30.12 in 10.0 mi North 11.5 mph - N/A   Overcast
3:35 PM 7.9 °F -9.9 °F -1.3 °F 66% 30.13 in 10.0 mi North 16.1 mph - N/A   Overcast
3:55 PM 7.7 °F -8.2 °F -2.4 °F 63% 30.15 in 10.0 mi North 12.7 mph - N/A   Overcast
4:15 PM 6.8 °F -6.9 °F -3.8 °F 62% 30.16 in 10.0 mi NNW 9.2 mph - N/A   Mostly Cloudy
4:35 PM 5.9 °F -10.5 °F -4.9 °F 61% 30.18 in 10.0 mi NNW 12.7 mph 16.1 mph N/A   Scattered Clouds
4:55 PM 5.0 °F -12.3 °F -6.2 °F 60% 30.20 in 10.0 mi North 13.8 mph 20.7 mph N/A   Scattered Clouds
5:15 PM 4.1 °F -12.0 °F -7.6 °F 58% 30.21 in 10.0 mi North 11.5 mph - N/A   Scattered Clouds
5:35 PM 3.9 °F -13.0 °F -7.1 °F 60% 30.22 in 10.0 mi North 12.7 mph 18.4 mph N/A   Scattered Clouds
5:55 PM 3.2 °F -13.1 °F -7.1 °F 62% 30.23 in 10.0 mi North 11.5 mph 18.4 mph N/A   Mostly Cloudy
6:15 PM 3.0 °F -11.5 °F -7.6 °F 61% 30.25 in 10.0 mi North 9.2 mph - N/A   Scattered Clouds
6:35 PM 2.5 °F -11.1 °F -7.6 °F 63% 30.26 in 10.0 mi North 8.1 mph - N/A   Clear
6:55 PM 2.1 °F -12.6 °F -8.1 °F 62% 30.27 in 10.0 mi NNW 9.2 mph - N/A   Clear
7:15 PM 1.9 °F -13.8 °F -9.9 °F 58% 30.28 in 10.0 mi NNW 10.4 mph - N/A   Clear
7:35 PM 1.0 °F -14.0 °F -12.3 °F 54% 30.30 in 10.0 mi NNW 9.2 mph - N/A   Clear
7:55 PM 0.5 °F -15.6 °F -13.4 °F 52% 30.30 in 10.0 mi NNW 10.4 mph 17.3 mph N/A   Clear
8:15 PM -0.4 °F -14.7 °F -15.3 °F 49% 30.31 in 10.0 mi NNW 8.1 mph - N/A   Clear
8:35 PM -1.3 °F -15.7 °F -16.6 °F 48% 30.31 in 10.0 mi NNW 8.1 mph 16.1 mph N/A   Clear
8:55 PM -1.5 °F -17.1 °F -16.4 °F 49% 30.32 in 10.0 mi NNW 9.2 mph - N/A   Clear
9:15 PM -2.2 °F -18.0 °F -17.5 °F 48% 30.33 in 10.0 mi NNW 9.2 mph - N/A   Clear
9:35 PM -2.6 °F -19.4 °F -17.5 °F 49% 30.34 in 10.0 mi NNW 10.4 mph - N/A   Clear
9:55 PM -3.1 °F -20.1 °F -17.7 °F 50% 30.34 in 10.0 mi NNW 10.4 mph - N/A   Clear
10:15 PM -3.6 °F -20.7 °F -18.0 °F 50% 30.35 in 10.0 mi NNW 10.4 mph - N/A   Clear
10:35 PM -4.2 °F -20.4 °F -18.0 °F 52% 30.35 in 10.0 mi NNW 9.2 mph - N/A   Clear
10:55 PM -5.1 °F -20.4 °F -18.6 °F 52% 30.36 in 10.0 mi NNW 8.1 mph - N/A   Clear
11:15 PM -5.8 °F -21.2 °F -18.9 °F 53% 30.36 in 10.0 mi NNW 8.1 mph - N/A   Clear
11:35 PM -6.2 °F -20.4 °F -18.6 °F 55% 30.36 in 10.0 mi NNW 6.9 mph - N/A   Clear
11:55 PM -6.2 °F -21.7 °F -18.0 °F 56% 30.36 in 10.0 mi NNW 8.1 mph - N/A   Clear